Find Starlink 33806

NORAD ID: 63723 Int'l Des: 2025-087 Owner: SPXS Country: US Constellation: starlink operational
LEOCIRCULAR

实时位置

正在加载3D地球...

关于 Starlink 33806

正在加载描述...

即将过境

Passes for default location (London). Set your location on the main map for personalized predictions.

高度历史

Loading altitude history...

两行轨道根数

1 63723U 25087AC 26107.24691467 .00008203 00000-0 28876-3 0 9995
2 63723 53.1601 40.4031 0001290 92.4033 267.7116 15.30201523 55107
Epoch: Apr 17, 2026 • Age: 12 hours

当前状态

高度 491.7 km
速度 7.62 km/s
星下点 -46.29°S, 153.97°E
发射日期 Apr 28, 2025
运行时间 0.9 years
类型 internet

技术详情

分类 Payload
质量 575.00 kg
干质量 530.00 kg
总质量 575.00 kg
长度 0.30 m
直径 4.10 m
跨度 29.00 m
形状 Box + pan
制造商 SPXS
平台类型 Starlink V2MO
阶段状态 In Orbit
所有者/国家 SPXS/US

Most Searched